Location: Oshawa
(43.9000°N, 78.8670°W)
Time: 11:17:00
(UTC-04:00)

Amateur Radio Satellites - All Passes

Search period start: 29 September 2016 10:47
Search period end: 30 September 2016 10:47
Location: Oshawa, 43.9000°N, 78.8670°W

Satellite Date Start Highest point End Downlink Frequencies (MHz)
Time Altitude Azimuth
GONETS M04 29 Sep 10:52:11 10:59:55 33° 293° (WNW) 11:07:44
DUCHIFAT 1 29 Sep 11:00:00 11:02:47 18° 64° (ENE) 11:05:35 145.980
TIGRISAT 29 Sep 11:02:48 11:06:58 56° 259° (W) 11:11:11 435.000
FUNcube-1 29 Sep 11:03:15 11:07:24 47° 288° (WNW) 11:11:38 145.935
QB50P1 29 Sep 11:03:23 11:06:36 22° 66° (ENE) 11:09:49 145.935-145.965
COMPASS 1 29 Sep 11:03:43 11:06:15 16° 297° (WNW) 11:08:46 437.405
AIST 2 29 Sep 11:05:00 11:07:23 15° 37° (NE) 11:09:45 435.215
CUBEBUG 2 29 Sep 11:06:23 11:09:26 19° 295° (WNW) 11:12:33 437.445
POPSAT HIP 1 29 Sep 11:16:35 11:20:12 29° 68° (ENE) 11:23:49 437.405
UWE-3 29 Sep 11:21:09 11:24:18 20° 294° (WNW) 11:27:31 435.000/436.395/437.385
DELFI C3 29 Sep 11:23:31 11:27:31 62° 285° (WNW) 11:31:28 145.870
ESTCUBE 1 29 Sep 11:25:04 11:25:47 10° 88° (E) 11:26:30 437.505/2401.250
NANOSAT C BR1 29 Sep 11:31:27 11:35:20 39° 71° (ENE) 11:39:15 145.865
Cosmos 2499 29 Sep 11:34:59 11:39:06 16° 300° (WNW) 11:43:15 435.465 / 435.565
Oscar 11 29 Sep 11:42:06 11:45:15 20° 295° (WNW) 11:48:24 145.826/435.025
UNISAT 6 29 Sep 11:45:20 11:48:26 19° 267° (W) 11:51:32 437.425
BEESAT 2 29 Sep 11:45:31 11:47:43 14° 250° (WSW) 11:49:53 435.950
ZACube-1 29 Sep 11:47:16 11:50:05 17° 296° (WNW) 11:52:57 437.345
JAS-2 29 Sep 11:50:03 11:56:30 58° 69° (ENE) 12:03:45 435.910
HUMSAT D 29 Sep 11:52:39 11:56:52 62° 286° (WNW) 12:01:06 437.325/437.525
QB50P2 29 Sep 11:56:04 12:00:17 84° 75° (ENE) 12:04:30 145.880/145.840
POLYITAN 1 29 Sep 11:58:17 12:02:28 84° 76° (ENE) 12:06:42 437.675
HO-68 29 Sep 11:58:54 12:01:29 12° 314° (NW) 12:04:04 435.675
AISAT 29 Sep 12:08:48 12:11:26 15° 91° (E) 12:14:03 437.250
PHONESAT 2.4 29 Sep 12:10:13 12:12:58 37° 172° (S) 12:15:43 2401.200-2431.200
PCSat 29 Sep 12:18:32 12:22:39 21° 41° (NE) 12:26:45 145.827
Oscar 19 29 Sep 12:21:57 12:25:00 16° 59° (ENE) 12:28:03 437.125/150
50 SAT 29 Sep 12:24:58 12:27:36 18° 94° (E) 12:30:13 437.505
BUGSAT 1 29 Sep 12:29:39 12:33:43 67° 74° (ENE) 12:37:45 437.445
DUCHIFAT 1 29 Sep 12:34:09 12:38:09 44° 261° (W) 12:42:10 145.980
DX 1 29 Sep 12:38:14 12:41:18 19° 93° (E) 12:44:21 434.975-435.025
QB50P1 29 Sep 12:38:18 12:42:10 35° 263° (W) 12:46:03 145.935-145.965
AIST 2 29 Sep 12:42:16 12:46:29 88° 57° (ENE) 12:50:41 435.215
YUBILEINY 29 Sep 12:44:41 12:50:25 19° 59° (ENE) 12:56:07 435.215
CUBEBUG 1 29 Sep 12:50:58 12:55:13 53° 100° (E) 12:59:26 437.445
VELOX 1 29 Sep 12:51:05 12:55:15 40° 98° (E) 12:59:23 145.980
POPSAT HIP 1 29 Sep 12:52:26 12:55:57 26° 265° (W) 12:59:30 437.405
M-CUBED/EXP-1 PRIME 29 Sep 12:57:16 12:59:28 17° 100° (E) 13:01:41 437.505
ESTCUBE 1 29 Sep 12:58:37 13:03:11 82° 283° (WNW) 13:07:41 437.505/2401.250
NANOSAT C BR1 29 Sep 13:08:15 13:11:13 19° 267° (W) 13:14:12 145.865
SPROUT 29 Sep 13:23:59 13:28:09 52° 100° (E) 13:32:17 437.525
Gurwin Techsat 1B 29 Sep 13:31:04 13:35:42 31° 65° (ENE) 13:40:19 435.225
JAS-2 29 Sep 13:36:23 13:41:59 29° 270° (W) 13:48:09 435.910
UKube-1 29 Sep 13:41:27 13:45:46 68° 102° (ESE) 13:50:02 .
AISAT 29 Sep 13:43:56 13:48:13 52° 288° (WNW) 13:52:28 437.250
PHONESAT 2.4 29 Sep 13:46:03 13:48:49 37° 188° (S) 13:51:34 2401.200-2431.200
AUBIESAT-1 29 Sep 13:51:54 13:55:13 73° 108° (ESE) 13:58:32 437.475
50 SAT 29 Sep 13:57:55 14:01:10 30° 290° (WNW) 14:04:23 437.505
Oscar 19 29 Sep 13:58:29 14:03:41 77° 257° (WSW) 14:08:54 437.125/150
PCSat 29 Sep 14:01:13 14:06:39 76° 242° (WSW) 14:12:03 145.827
AO-7 29 Sep 14:06:23 14:12:37 24° 51° (NE) 14:18:50 29.400- 29.500
BUGSAT 1 29 Sep 14:08:37 14:09:31 11° 271° (W) 14:10:25 437.445
DX 1 29 Sep 14:13:35 14:17:41 42° 290° (WNW) 14:21:46 434.975-435.025
SWISSCUBE 29 Sep 14:24:16 14:25:29 11° 88° (E) 14:26:42 437.505
VELOX 1 29 Sep 14:28:09 14:31:28 21° 296° (WNW) 14:34:44 145.980
CUBEBUG 1 29 Sep 14:28:25 14:31:05 16° 297° (WNW) 14:33:44 437.445
Cosmos 2504 29 Sep 14:28:35 14:34:55 29° 69° (ENE) 14:41:32 435.465 / 435.565
M-CUBED/EXP-1 PRIME 29 Sep 14:31:18 14:34:05 26° 296° (WNW) 14:36:51 437.505
SO-50 29 Sep 14:33:36 14:37:06 20° 111° (ESE) 14:40:35 436.795
BEESAT 29 Sep 14:36:06 14:38:23 13° 89° (E) 14:40:39 436.000
Cosmos 2491 29 Sep 14:38:00 14:46:01 42° 86° (E) 14:54:06 435.465 / 435.565
TISAT 1 29 Sep 14:38:08 14:42:18 67° 102° (ESE) 14:46:27 437.305
YUBILEINY 29 Sep 14:39:58 14:48:44 82° 81° (E) 14:57:26 435.215
ITAMSAT 1 29 Sep 14:55:34 15:00:33 51° 70° (ENE) 15:05:34 435.822/435.867
SPROUT 29 Sep 15:01:05 15:03:40 16° 297° (WNW) 15:06:15 437.525
Gurwin Techsat 1B 29 Sep 15:10:40 15:15:32 37° 263° (W) 15:20:27 435.225
UKube-1 29 Sep 15:19:13 15:21:15 13° 299° (WNW) 15:23:17 .
PHONESAT 2.4 29 Sep 15:22:36 15:24:27 15° 204° (SSW) 15:26:19 2401.200-2431.200
AIST 1 29 Sep 15:40:58 15:43:45 17° 69° (ENE) 15:46:30
ITUPSAT 1 29 Sep 15:46:58 15:51:45 65° 101° (ESE) 15:56:32 437.325
MOZHAYETS 4 29 Sep 15:47:04 15:49:05 13° 89° (E) 15:51:05
PCSat 29 Sep 15:48:23 15:49:05 10° 259° (W) 15:49:47 145.827
AO-7 29 Sep 15:56:04 16:04:25 88° 251° (WSW) 16:12:47 29.400- 29.500
SWISSCUBE 29 Sep 15:59:03 16:03:54 85° 285° (WNW) 16:08:42 437.505
O/OREOS (USA 219) 29 Sep 16:08:35 16:12:03 20° 53° (NE) 16:15:29 437.305
BEESAT 29 Sep 16:11:53 16:16:40 72° 286° (WNW) 16:21:26 436.000
SO-50 29 Sep 16:12:27 16:17:12 57° 309° (NW) 16:21:55 436.795
TISAT 1 29 Sep 16:15:38 16:17:25 12° 299° (WNW) 16:19:10 437.305
HORYU 2 29 Sep 16:19:00 16:21:42 16° 62° (ENE) 16:24:25 437.375
Cosmos 2504 29 Sep 16:21:24 16:28:40 58° 268° (W) 16:36:25 435.465 / 435.565
Cosmos 2491 29 Sep 16:34:23 16:42:45 47° 287° (WNW) 16:51:13 435.465 / 435.565
ITAMSAT 1 29 Sep 16:36:25 16:40:18 21° 267° (W) 16:44:12 435.822/435.867
YUBILEINY 29 Sep 16:38:22 16:44:26 22° 282° (WNW) 16:50:30 435.215
NOAA 15 29 Sep 16:49:17 16:51:18 12° 55° (NE) 16:53:18 137.62
GOMX 1 29 Sep 16:50:39 16:51:21 10° 58° (ENE) 16:52:02 467.674
BRITE-PL 29 Sep 17:05:45 17:10:44 32° 67° (ENE) 17:15:35 437.365/2234.400
CUTE-I 29 Sep 17:10:27 17:13:26 15° 58° (ENE) 17:16:25 437.470
Cubesat XI-IV 29 Sep 17:10:55 17:13:53 15° 58° (ENE) 17:16:51 437.490
CUBESAT XI-V 29 Sep 17:11:34 17:13:44 13° 89° (E) 17:15:53 437.345
AIST 1 29 Sep 17:17:32 17:21:37 44° 267° (W) 17:25:40
MOZHAYETS 4 29 Sep 17:22:05 17:26:44 71° 286° (WNW) 17:31:21
ITUPSAT 1 29 Sep 17:26:06 17:29:05 17° 299° (WNW) 17:32:03 437.325
KKS-1 29 Sep 17:34:05 17:38:32 85° 287° (WNW) 17:42:57 437.445
SWISSCUBE 29 Sep 17:39:20 17:40:55 12° 303° (WNW) 17:42:29 437.505
LilacSat-2 29 Sep 17:46:21 17:49:09 20° 67° (ENE) 17:51:59 437.200
O/OREOS (USA 219) 29 Sep 17:47:18 17:51:45 50° 252° (WSW) 17:56:10 437.305
AO-7 29 Sep 17:52:46 17:58:15 19° 270° (W) 18:03:45 29.400- 29.500
HORYU 2 29 Sep 17:53:30 17:57:49 56° 259° (W) 18:02:11 437.375
SO-50 29 Sep 17:56:26 17:58:41 13° 329° (NNW) 18:00:56 436.795
STARS 29 Sep 18:02:36 18:06:59 87° 280° (W) 18:11:21 437.465
NOAA 18 29 Sep 18:04:51 18:09:49 37° 66° (ENE) 18:14:47 137.9125
CUSAT 1 29 Sep 18:07:48 18:12:11 19° 78° (ENE) 18:17:00 437.405
GOMX 1 29 Sep 18:23:16 18:28:36 70° 74° (ENE) 18:33:39 467.674
NOAA 15 29 Sep 18:24:53 18:30:11 78° 74° (ENE) 18:35:31 137.62
DOVE 4 29 Sep 18:35:50 18:40:27 40° 71° (ENE) 18:44:49 437.250
BRITE-PL 29 Sep 18:43:43 18:49:02 40° 263° (W) 18:54:15 437.365/2234.400
CUBESAT XI-V 29 Sep 18:46:56 18:51:37 70° 285° (WNW) 18:56:15 437.345
CUTE-I 29 Sep 18:47:28 18:52:46 83° 256° (WSW) 18:58:08 437.470
Cubesat XI-IV 29 Sep 18:47:56 18:53:15 83° 257° (WSW) 18:58:37 437.490
HO-68 29 Sep 18:51:45 18:57:35 28° 58° (ENE) 19:03:24 435.675
RS-15 29 Sep 19:01:06 19:10:36 31° 103° (ESE) 19:20:28 29.354- 29.394
GONETS M04 29 Sep 19:02:49 19:10:32 32° 67° (ENE) 19:18:08
SEEDS 29 Sep 19:17:35 19:19:50 14° 62° (ENE) 19:22:04 437.485
CUTE 1.7 + AOD 2 29 Sep 19:18:44 19:21:51 20° 65° (ENE) 19:24:59 437.475
LilacSat-2 29 Sep 19:19:58 19:23:17 30° 264° (W) 19:26:38 437.200
CANX-2 29 Sep 19:20:03 19:23:27 24° 67° (ENE) 19:26:52 2200.000
Cosmos 2499 29 Sep 19:25:57 19:32:49 36° 71° (ENE) 19:40:06 435.465 / 435.565
CINEMA 3 29 Sep 19:34:10 19:38:18 40° 71° (ENE) 19:42:18 145.822/145.860
AAUSAT CUBESAT 2 29 Sep 19:35:17 19:36:50 12° 61° (ENE) 19:38:22 437.432
NOAA 18 29 Sep 19:45:37 19:50:29 32° 263° (W) 19:55:22 137.9125
CUSAT 1 29 Sep 19:46:24 19:52:55 88° 280° (W) 20:00:47 437.405
ISS 29 Sep 19:50:30 19:53:11 24° 137° (SE) 19:55:54 145.825
DANDE 29 Sep 19:54:51 20:00:01 45° 89° (E) 20:06:39 436.750
GOMX 1 29 Sep 20:03:50 20:07:03 16° 270° (W) 20:10:11 467.674
NOAA 15 29 Sep 20:07:47 20:10:33 14° 271° (W) 20:13:20 137.62
DOVE 4 29 Sep 20:14:16 20:18:14 24° 266° (W) 20:22:02 437.250
AO-85 29 Sep 20:14:18 20:18:02 20° 111° (ESE) 20:21:36 145.980
COMPASS 1 29 Sep 20:18:45 20:22:41 41° 71° (ENE) 20:26:40 437.405
FUNcube-1 29 Sep 20:25:39 20:28:06 16° 63° (ENE) 20:30:34 145.935
CUBEBUG 2 29 Sep 20:28:31 20:32:26 40° 71° (ENE) 20:36:20 437.445
CUTE-I 29 Sep 20:32:40 20:33:38 10° 273° (W) 20:34:34 437.470
Cubesat XI-IV 29 Sep 20:33:08 20:34:07 10° 273° (W) 20:35:06 437.490
STRAND 1 29 Sep 20:36:28 20:41:38 70° 102° (ESE) 20:46:47 437.568
HO-68 29 Sep 20:37:40 20:44:47 65° 257° (WSW) 20:51:56 435.675
UWE-3 29 Sep 20:42:28 20:46:17 37° 71° (ENE) 20:50:08 435.000/436.395/437.385
SEEDS 29 Sep 20:50:53 20:55:02 59° 260° (W) 20:59:15 437.485
CUTE 1.7 + AOD 2 29 Sep 20:53:28 20:57:25 39° 263° (W) 21:01:27 437.475
CANX-2 29 Sep 20:55:19 20:59:08 32° 264° (W) 21:03:01 2200.000
GONETS M04 29 Sep 20:59:16 21:07:53 61° 269° (W) 21:16:24
Oscar 11 29 Sep 21:01:10 21:05:09 38° 70° (ENE) 21:09:11 145.826/435.025
ZACube-1 29 Sep 21:07:06 21:11:02 44° 72° (ENE) 21:14:59 437.345
AAUSAT CUBESAT 2 29 Sep 21:07:33 21:11:43 72° 259° (WSW) 21:15:55 437.432
RS-15 29 Sep 21:10:05 21:21:47 81° 306° (NW) 21:34:09 29.354- 29.394
CINEMA 3 29 Sep 21:12:24 21:15:35 19° 267° (W) 21:18:43 145.822/145.860
HUMSAT D 29 Sep 21:12:55 21:13:57 11° 60° (ENE) 21:14:58 437.325/437.525
Cosmos 2499 29 Sep 21:18:52 21:26:05 49° 270° (W) 21:33:50 435.465 / 435.565
ISS 29 Sep 21:26:20 21:29:30 49° 334° (NNW) 21:32:42 145.825
CUSAT 1 29 Sep 21:31:17 21:36:14 20° 303° (WNW) 21:41:41 437.405
DANDE 29 Sep 21:38:01 21:43:04 32° 295° (WNW) 21:49:23 436.750
AO-85 29 Sep 21:53:02 21:58:09 62° 307° (NW) 22:02:57 145.980
COMPASS 1 29 Sep 21:55:33 21:58:25 18° 268° (W) 22:01:20 437.405
FUNcube-1 29 Sep 21:59:57 22:03:58 49° 261° (W) 22:08:00 145.935
CUBEBUG 2 29 Sep 22:06:26 22:09:15 18° 268° (W) 22:12:05 437.445
DELFI C3 29 Sep 22:10:02 22:14:03 88° 76° (ENE) 22:18:06 145.870
STRAND 1 29 Sep 22:17:00 22:20:15 17° 300° (WNW) 22:23:30 437.568
UWE-3 29 Sep 22:19:58 22:22:54 19° 267° (W) 22:25:52 435.000/436.395/437.385
ESTCUBE 1 29 Sep 22:25:22 22:27:26 13° 60° (ENE) 22:29:29 437.505/2401.250
PRISM 29 Sep 22:29:23 22:33:32 75° 285° (WNW) 22:37:37 437.425
HO-68 29 Sep 22:32:31 22:33:49 10° 276° (W) 22:35:08 435.675
ANTELSAT 29 Sep 22:33:29 22:36:27 17° 92° (E) 22:39:26 437.575/2403.000
Oscar 11 29 Sep 22:38:13 22:41:26 20° 267° (W) 22:44:40 145.826/435.025
HUMSAT D 29 Sep 22:44:51 22:48:56 77° 258° (WSW) 22:53:05 437.325/437.525
ZACube-1 29 Sep 22:45:00 22:47:34 16° 269° (W) 22:50:10 437.345
TIGRISAT 29 Sep 22:52:50 22:56:32 26° 95° (E) 23:00:17 435.000
GONETS M04 29 Sep 23:00:45 23:02:41 11° 290° (WNW) 23:04:38
SO-50 29 Sep 23:02:37 23:06:37 28° 43° (NE) 23:10:32 436.795
ISS 29 Sep 23:03:55 23:06:32 21° 354° (N) 23:09:08 145.825
50 SAT 29 Sep 23:04:33 23:05:40 11° 62° (ENE) 23:06:47 437.505
AUBIESAT-1 29 Sep 23:07:15 23:08:36 12° 58° (ENE) 23:09:56 437.475
AISAT 29 Sep 23:07:29 23:10:29 18° 63° (ENE) 23:13:28 437.250
RS-15 29 Sep 23:25:53 23:36:30 35° 335° (NNW) 23:47:30 29.354- 29.394
UNISAT 6 29 Sep 23:33:39 23:38:06 74° 103° (ESE) 23:42:36 437.425
DX 1 29 Sep 23:35:06 23:38:21 21° 64° (ENE) 23:41:36 434.975-435.025
AO-85 29 Sep 23:36:58 23:39:29 14° 327° (NNW) 23:41:55 145.980
QB50P2 29 Sep 23:41:26 23:43:11 12° 90° (E) 23:44:56 145.880/145.840
POLYITAN 1 29 Sep 23:43:37 23:45:22 12° 90° (E) 23:47:07 437.675
M-CUBED/EXP-1 PRIME 29 Sep 23:43:58 23:47:39 35° 66° (ENE) 23:51:05 437.505
CUBEBUG 1 29 Sep 23:47:51 23:52:09 53° 72° (ENE) 23:56:26 437.445
VELOX 1 29 Sep 23:49:25 23:53:38 43° 70° (ENE) 23:57:51 145.980
ESTCUBE 1 29 Sep 23:59:05 00:03:36 77° 257° (WSW) 00:08:11 437.505/2401.250
ANTELSAT 30 Sep 00:09:08 00:13:23 48° 288° (WNW) 00:17:44 437.575/2403.000
DUCHIFAT 1 30 Sep 00:17:00 00:20:27 24° 95° (E) 00:23:53 145.980
SPROUT 30 Sep 00:18:33 00:22:38 47° 72° (ENE) 00:26:44 437.525
QB50P1 30 Sep 00:21:21 00:25:08 31° 97° (E) 00:28:52 145.935-145.965
TIGRISAT 30 Sep 00:29:18 00:33:14 32° 291° (WNW) 00:37:13 435.000
POPSAT HIP 1 30 Sep 00:34:55 00:38:57 43° 99° (E) 00:42:58 437.405
50 SAT 30 Sep 00:35:05 00:38:40 57° 259° (W) 00:42:17 437.505
UKube-1 30 Sep 00:36:54 00:41:11 68° 75° (ENE) 00:45:31 .
BEESAT 3 30 Sep 00:36:57 00:40:24 31° 116° (ESE) 00:43:53 437.485
AUBIESAT-1 30 Sep 00:38:42 00:42:40 66° 253° (WSW) 00:46:22 437.475
ISS 30 Sep 00:40:55 00:43:44 26° 14° (NNE) 00:46:34 145.825
AISAT 30 Sep 00:42:15 00:46:35 50° 260° (W) 00:50:55 437.250
JAS-2 30 Sep 00:42:43 00:50:21 50° 97° (E) 00:57:32 435.910
SO-50 30 Sep 00:42:55 00:47:13 41° 243° (WSW) 00:51:24 436.795
Cosmos 2491 30 Sep 00:46:38 00:53:15 23° 61° (ENE) 00:59:48 435.465 / 435.565
NANOSAT C BR1 30 Sep 00:49:35 00:53:45 60° 101° (ESE) 00:57:55 145.865
DX 1 30 Sep 01:10:08 01:14:15 41° 261° (W) 01:18:25 434.975-435.025
UNISAT 6 30 Sep 01:12:16 01:14:15 13° 299° (WNW) 01:16:15 437.425
QB50P2 30 Sep 01:15:12 01:19:23 62° 287° (WNW) 01:23:34 145.880/145.840
POLYITAN 1 30 Sep 01:17:23 01:21:34 62° 286° (WNW) 01:25:44 437.675
M-CUBED/EXP-1 PRIME 30 Sep 01:19:15 01:22:13 19° 259° (W) 01:25:03 437.505
ITUPSAT 1 30 Sep 01:20:54 01:22:33 12° 57° (ENE) 01:24:11 437.325
CUBEBUG 1 30 Sep 01:26:04 01:28:44 16° 269° (W) 01:31:23 437.445
VELOX 1 30 Sep 01:27:04 01:30:16 19° 267° (W) 01:33:29 145.980
TISAT 1 30 Sep 01:30:45 01:34:51 59° 73° (ENE) 01:38:58 437.305
SWISSCUBE 30 Sep 01:31:14 01:34:11 17° 61° (ENE) 01:37:08 437.505
BEESAT 2 30 Sep 01:36:34 01:40:27 68° 122° (ESE) 01:44:25 435.950
BEESAT 30 Sep 01:43:29 01:46:49 19° 62° (ENE) 01:50:10 436.000
RS-15 30 Sep 01:43:46 01:53:57 29° 10° (N) 02:04:12 29.354- 29.394
BUGSAT 1 30 Sep 01:45:09 01:49:11 85° 284° (WNW) 01:53:13 437.445
YUBILEINY 30 Sep 01:49:37 01:55:12 19° 77° (ENE) 02:00:47 435.215
DUCHIFAT 1 30 Sep 01:52:28 01:56:08 30° 292° (WNW) 01:59:48 145.980
SPROUT 30 Sep 01:56:07 01:58:49 16° 268° (W) 02:01:31 437.525
QB50P1 30 Sep 01:57:21 02:00:46 24° 293° (WNW) 02:04:10 145.935-145.965
Oscar 19 30 Sep 02:08:56 02:13:35 33° 96° (E) 02:18:11 437.125/150
POPSAT HIP 1 30 Sep 02:11:30 02:14:25 18° 296° (WNW) 02:17:20 437.405
BEESAT 3 30 Sep 02:14:39 02:18:03 27° 314° (NW) 02:21:28 437.485
UKube-1 30 Sep 02:16:08 02:17:42 12° 270° (W) 02:19:15 .
ISS 30 Sep 02:17:15 02:20:32 84° 217° (SW) 02:23:49 145.825
NANOSAT C BR1 30 Sep 02:26:50 02:29:00 14° 298° (WNW) 02:31:09 145.865
JAS-2 30 Sep 02:27:57 02:35:07 40° 297° (WNW) 02:42:00 435.910
Cosmos 2491 30 Sep 02:42:24 02:51:18 86° 263° (W) 03:00:07 435.465 / 435.565
AIST 2 30 Sep 02:43:18 02:45:03 12° 109° (ESE) 02:46:49 435.215
MOZHAYETS 4 30 Sep 02:50:18 02:52:55 15° 61° (ENE) 02:55:33
ITUPSAT 1 30 Sep 02:54:51 02:59:37 87° 72° (ENE) 03:04:26 437.325
KKS-1 30 Sep 02:59:50 03:01:38 12° 59° (ENE) 03:03:25 437.445
PCSat 30 Sep 03:06:02 03:06:47 10° 101° (E) 03:07:32 145.827
SWISSCUBE 30 Sep 03:06:44 03:11:27 64° 258° (WSW) 03:16:13 437.505
ITAMSAT 1 30 Sep 03:08:10 03:11:19 16° 90° (E) 03:14:27 435.822/435.867
TISAT 1 30 Sep 03:09:01 03:10:52 13° 270° (W) 03:12:44 437.305
Cosmos 2504 30 Sep 03:10:59 03:16:05 21° 81° (E) 03:21:06 435.465 / 435.565
BEESAT 2 30 Sep 03:16:07 03:18:43 16° 321° (NW) 03:21:19 435.950
BEESAT 30 Sep 03:19:34 03:24:12 53° 260° (W) 03:28:53 436.000
Gurwin Techsat 1B 30 Sep 03:24:46 03:30:08 79° 103° (ESE) 03:35:27 435.225
STARS 30 Sep 03:27:29 03:28:52 11° 59° (ENE) 03:30:15 437.465
YUBILEINY 30 Sep 03:41:56 03:50:44 89° 96° (E) 03:59:32 435.215
Oscar 19 30 Sep 03:48:18 03:52:52 33° 294° (WNW) 03:57:23 437.125/150
ISS 30 Sep 03:55:26 03:56:32 11° 229° (SW) 03:57:38 145.825
AO-7 30 Sep 03:56:48 04:03:41 28° 94° (E) 04:10:32 29.400- 29.500
RS-15 30 Sep 03:58:09 04:10:14 53° 42° (NE) 04:22:05 29.354- 29.394
CUBESAT XI-V 30 Sep 04:16:03 04:18:58 16° 62° (ENE) 04:21:52 437.345
AIST 2 30 Sep 04:18:53 04:22:58 68° 307° (NW) 04:27:07 435.215
MOZHAYETS 4 30 Sep 04:25:01 04:29:33 65° 259° (W) 04:34:08
KKS-1 30 Sep 04:33:07 04:37:34 79° 257° (WSW) 04:42:02 437.445
ITUPSAT 1 30 Sep 04:37:16 04:38:06 10° 272° (W) 04:38:56 437.325
CUSAT 1 30 Sep 04:39:23 04:44:11 17° 55° (NE) 04:48:35 437.405
Cosmos 2491 30 Sep 04:41:21 04:46:45 18° 284° (WNW) 04:52:08 435.465 / 435.565
PCSat 30 Sep 04:43:49 04:49:13 77° 118° (ESE) 04:54:39 145.827
AO-85 30 Sep 04:43:59 04:47:23 23° 41° (NE) 04:50:37 145.980
ITAMSAT 1 30 Sep 04:46:04 04:51:17 68° 287° (WNW) 04:56:28 435.822/435.867
DANDE 30 Sep 04:51:08 04:54:01 12° 50° (NE) 04:56:51 436.750
STARS 30 Sep 05:00:11 05:04:34 83° 256° (WSW) 05:08:58 437.465
Cosmos 2504 30 Sep 05:01:21 05:08:41 71° 280° (W) 05:15:51 435.465 / 435.565
Gurwin Techsat 1B 30 Sep 05:06:17 05:09:25 16° 302° (WNW) 05:12:32 435.225
YUBILEINY 30 Sep 05:42:30 05:48:48 21° 299° (WNW) 05:55:07 435.215
HORYU 2 30 Sep 05:43:19 05:46:56 24° 95° (E) 05:50:33 437.375
AIST 1 30 Sep 05:47:30 05:51:53 84° 277° (W) 05:56:17
AO-7 30 Sep 05:48:50 05:57:03 69° 293° (WNW) 06:05:15 29.400- 29.500
CUBESAT XI-V 30 Sep 05:51:10 05:55:50 62° 259° (W) 06:00:32 437.345
AIST 2 30 Sep 06:00:33 06:02:14 12° 326° (NNW) 06:03:56 435.215
RS-15 30 Sep 06:11:05 06:23:02 58° 247° (WSW) 06:34:41 29.354- 29.394
STRAND 1 30 Sep 06:17:08 06:20:14 16° 59° (ENE) 06:23:21 437.568
CUSAT 1 30 Sep 06:19:58 06:27:44 78° 79° (ENE) 06:34:04 437.405
O/OREOS (USA 219) 30 Sep 06:23:26 06:26:10 16° 99° (E) 06:28:56 437.305
AO-85 30 Sep 06:24:06 06:28:01 42° 242° (WSW) 06:31:43 145.980
GOMX 1 30 Sep 06:25:32 06:28:06 15° 90° (E) 06:30:38 467.674
NOAA 18 30 Sep 06:27:04 06:29:27 13° 89° (E) 06:31:48 137.9125
ITAMSAT 1 30 Sep 06:28:54 06:29:47 10° 306° (NW) 06:30:39 435.822/435.867
PCSat 30 Sep 06:29:08 06:33:13 21° 319° (NW) 06:37:21 145.827
DANDE 30 Sep 06:30:53 06:39:00 49° 71° (ENE) 06:46:30 436.750
NOAA 15 30 Sep 06:39:13 06:43:36 26° 94° (E) 06:47:56 137.62
BRITE-PL 30 Sep 06:47:32 06:52:19 67° 101° (E) 06:56:41 437.365/2234.400
LilacSat-2 30 Sep 06:51:41 06:54:53 24° 95° (E) 06:58:03 437.200
Cosmos 2504 30 Sep 07:00:33 07:03:31 13° 302° (WNW) 07:06:29 435.465 / 435.565
CUTE-I 30 Sep 07:03:17 07:08:11 35° 97° (E) 07:13:04 437.470
Cubesat XI-IV 30 Sep 07:03:56 07:08:50 35° 97° (E) 07:13:43 437.490
HORYU 2 30 Sep 07:19:30 07:23:32 35° 292° (WNW) 07:27:35 437.375
AO-7 30 Sep 07:43:20 07:48:22 18° 315° (NW) 07:53:23 29.400- 29.500
STRAND 1 30 Sep 07:53:44 07:58:49 72° 257° (WSW) 08:03:57 437.568
O/OREOS (USA 219) 30 Sep 08:00:36 08:05:05 56° 297° (WNW) 08:09:37 437.305
GOMX 1 30 Sep 08:02:21 08:06:35 48° 288° (WNW) 08:10:36 467.674
CUSAT 1 30 Sep 08:03:26 08:08:38 21° 281° (W) 08:13:16 437.405
HO-68 30 Sep 08:04:39 08:10:08 23° 92° (E) 08:15:34 435.675
NOAA 18 30 Sep 08:05:18 08:10:48 88° 286° (WNW) 08:16:17 137.9125
GONETS M04 30 Sep 08:06:03 08:13:42 35° 84° (E) 08:21:21
Cosmos 2499 30 Sep 08:06:21 08:11:46 24° 83° (E) 08:17:11 435.465 / 435.565
DOVE 4 30 Sep 08:10:39 08:14:51 87° 103° (ESE) 08:19:00 437.250
DANDE 30 Sep 08:13:57 08:21:41 42° 272° (W) 08:28:47 436.750
BEESAT 2 30 Sep 08:17:24 08:18:32 11° 33° (NNE) 08:19:40 435.950
NOAA 15 30 Sep 08:18:31 08:23:32 43° 292° (WNW) 08:28:29 137.62
LilacSat-2 30 Sep 08:25:55 08:29:07 25° 291° (WNW) 08:32:18 437.200
BRITE-PL 30 Sep 08:27:33 08:30:08 15° 301° (WNW) 08:32:39 437.365/2234.400
RS-15 30 Sep 08:28:52 08:32:33 12° 269° (W) 08:36:13 29.354- 29.394
SEEDS 30 Sep 08:33:57 08:37:10 20° 93° (E) 08:40:22 437.485
CUTE 1.7 + AOD 2 30 Sep 08:36:49 08:40:40 31° 96° (E) 08:44:29 437.475
CANX-2 30 Sep 08:38:29 08:42:30 37° 97° (E) 08:46:30 2200.000
CUTE-I 30 Sep 08:43:25 08:48:09 33° 294° (WNW) 08:52:54 437.470
Cubesat XI-IV 30 Sep 08:44:06 08:48:51 33° 294° (WNW) 08:53:35 437.490
AAUSAT CUBESAT 2 30 Sep 08:49:29 08:52:08 16° 91° (E) 08:54:46 437.432
BEESAT 3 30 Sep 08:52:25 08:56:01 31° 47° (NE) 08:59:35 437.485
CINEMA 3 30 Sep 09:03:43 09:07:55 85° 103° (ESE) 09:12:12 145.822/145.860
PRISM 30 Sep 09:19:33 09:23:45 89° 264° (W) 09:27:57 437.425
ANTELSAT 30 Sep 09:34:08 09:37:00 18° 64° (ENE) 09:39:52 437.575/2403.000
COMPASS 1 30 Sep 09:35:15 09:39:28 66° 101° (ESE) 09:43:38 437.405
FUNcube-1 30 Sep 09:46:21 09:50:04 26° 95° (E) 09:53:49 145.935
NOAA 18 30 Sep 09:47:51 09:50:40 14° 304° (NW) 09:53:29 137.9125
DELFI C3 30 Sep 09:49:00 09:49:34 10° 89° (E) 09:50:07 145.870
HO-68 30 Sep 09:51:19 09:58:26 71° 290° (WNW) 10:05:32 435.675
TIGRISAT 30 Sep 09:53:08 09:56:38 26° 67° (ENE) 10:00:10 435.000
BEESAT 2 30 Sep 09:53:09 09:57:10 62° 53° (NE) 10:01:08 435.950
CUBEBUG 2 30 Sep 09:53:35 09:57:55 80° 104° (ESE) 10:02:20 437.445
Cosmos 2499 30 Sep 09:57:17 10:04:17 60° 283° (WNW) 10:11:18 435.465 / 435.565
GONETS M04 30 Sep 10:01:27 10:10:05 56° 284° (WNW) 10:18:48
UWE-3 30 Sep 10:06:06 10:10:27 73° 103° (ESE) 10:14:53 435.000/436.395/437.385
SEEDS 30 Sep 10:09:03 10:12:59 37° 290° (WNW) 10:16:54 437.485
CUTE 1.7 + AOD 2 30 Sep 10:12:51 10:16:23 25° 293° (WNW) 10:19:54 437.475
CANX-2 30 Sep 10:14:51 10:18:08 22° 294° (WNW) 10:21:24 2200.000
Oscar 11 30 Sep 10:22:31 10:26:52 66° 101° (E) 10:31:12 145.826/435.025
AAUSAT CUBESAT 2 30 Sep 10:23:50 10:27:52 46° 288° (WNW) 10:31:51 437.432
HUMSAT D 30 Sep 10:27:48 10:30:26 16° 91° (E) 10:33:04 437.325/437.525
ZACube-1 30 Sep 10:29:28 10:33:50 83° 102° (ESE) 10:38:17 437.345
BEESAT 3 30 Sep 10:30:11 10:33:35 27° 245° (WSW) 10:36:57 437.485
UNISAT 6 30 Sep 10:33:46 10:38:01 75° 76° (ENE) 10:42:17 437.425
QB50P2 30 Sep 10:36:02 10:37:41 12° 61° (ENE) 10:39:22 145.880/145.840
POLYITAN 1 30 Sep 10:38:13 10:39:52 12° 61° (ENE) 10:41:32 437.675
